SCP
0 0 0 0 0 0 0 0 0 0 0 0 0 0 0 0 0 0 0 0 0 0 0 0 0 0 0 0 0 0 0 0 0 0 0 0 0 0 0 0 0 0 0
0 0 0 0 0 0 0 0 0 0 0 0 0 0 0 0 0 0 0 0 0 0 0 0 0 0 0 0 0 0 0 0 0 0 0 0 0 0 0 0 0 0 0
0 0 0 0 0 0 0 0 0 0 0 0 0 0 0 0 0 0 0 0 0 0 0 0 0 0 0 0 0 0 0 0 0 0 0 0 0 0 0 0 0 0 0
0 1 1 1 1 1 0 0 0 -0 0 1 0 0 1 0 0 0 0 1 1 1 1 1 0 0 0 0 0 0 0 0 0 0 0 0 0 0 0 0 0 0 0
0 0 0 0 1 0 0 0 0 0 0 0 0 0 1 1 1 0 1 1 1 1 1 1 1 0 0 0 0 0 0 0 0 0 0 0 0 0 0 0 0 0 0
0 0 0 1 0 0 0 0 0 0 0 -0 -0 0 0 1 1 0 1 1 1 1 1 1 1 0 0 0 0 0 0 0 0 0 0 0 0 0 0 0 0 0 0
0 0 0 1 1 0 0 0 0 0 0 0 -0 0 0 0 0 0 0 1 1 1 1 1 1 1 0 0 0 0 0 0 0 0 0 0 0 0 0 0 0 0 0
0 0 0 0 0 0 0 0 0 0 0 0 0 0 0 1 1 0 0 1 1 1 1 1 1 1 1 1 1 1 0 0 0 0 0 0 0 0 0 0 0 0 0
0 0 0 0 0 0 0 0 0 0 0 0 0 0 0 0 0 0 0 1 1 1 0 0 0 0 0 0 1 1 1 1 0 0 0 0 0 0 0 0 0 0 0
0 0 0 0 0 0 0 0 0 0 0 -0 0 0 0 0 0 0 0 0 0 0 0 0 0 0 0 0 0 1 1 1 1 0 0 0 0 0 0 0 0 0 0
0 -0 0 0 0 0 0 0 0 0 0 0 0 -0 0 -0 -0 0 0 0 0 0 0 0 0 0 0 0 0 1 1 1 1 0 0 0 0 0 0 0 0 0 0
0 0 0 0 0 0 0 0 0 0 0 0 0 -0 -0 0 0 0 0 0 0 0 0 0 0 0 0 0 0 0 0 0 0 1 0 0 0 0 0 0 0 0 0
0 0 -0 0 0 0 0 0 0 0 0 0 0 0 0 0 0 0 0 0 0 0 0 1 0 0 0 0 0 0 0 0 0 0 0 0 0 0 0 0 0 0 0
0 0 0 -0 -0 0 0 0 0 0 0 0 0 0 0 0 0 0 0 0 0 0 0 1 0 0 0 0 0 0 0 0 0 0 0 0 0 0 0 0 0 0 0
0 0 0 0 0 0 0 0 0 0 0 0 0 0 0 0 0 0 0 0 0 0 0 0 0 0 0 0 0 0 0 0 0 0 0 0 0 0 0 0 0 0 0
0 0 0 0 0 0 0 -0 -0 0 0 0 0 0 0 0 1 0 0 0 0 0 0 0 0 0 0 0 0 0 0 0 0 0 0 0 0 0 0 0 0 0 0
0 0 0 0 0 0 0 0 -0 -0 0 0 0 0 0 0 0 0 0 0 0 0 2 1 1 0 0 0 0 0 0 0 0 0 0 0 0 0 0 0 0 0 0
0 0 0 0 0 0 0 0 0 0 0 -0 -0 0 0 0 0 0 0 0 0 0 1 1 1 1 0 0 0 0 0 0 0 0 0 0 0 0 0 0 0 0 0
0 0 0 0 0 0 0 0 0 0 0 0 0 0 0 0 0 0 0 0 0 0 0 1 1 1 0 0 0 0 0 0 0 0 0 0 0 0 0 0 0 0 0
0 0 0 0 0 0 0 0 0 0 0 0 0 0 0 0 0 0 0 0 0 0 0 0 0 0 0 0 0 0 0 0 0 0 0 0 0 0 0 0 0 0 0
0 0 0 0 0 0 0 0 0 0 0 0 0 0 0 0 0 0 0 0 0 0 0 0 0 0 0 0 0 0 0 0 0 0 0 0 0 0 0 0 0 0 0
0 0 0 0 0 0 0 0 0 0 0 0 0 0 0 0 0 0 0 0 0 0 0 0 0 0 0 0 0 0 0 0 0 0 0 0 0 0 0 0 0 0 0
0 0 0 0 0 0 0 0 0 0 0 0 0 0 0 0 0 0 0 0 0 0 0 0 0 0 0 0 0 0 0 0 0 0 0 0 0 0 0 0 0 0 0
-0 -0 0 0 0 0 0 0 0 0 0 0 0 0 0 0 0 0 0 0 0 0 0 0 0 0 0 0 0 0 0 0 0 0 0 0 0 0 0 0 0 0 0
-0 -0 -0 -0 -0 0 0 0 0 -0 0 0 0 0 0 0 0 0 0 0 0 0 0 0 0 0 0 0 0 0 0 0 0 0 0 0 0 0 0 0 0 0 0
0 0 0 0 0 0 0 0 0 0 0 -0 -0 -0 0 0 0 0 0 0 0 0 0 0 0 0 0 0 0 0 0 0 0 0 0 0 0 0 0 0 0 0 0
Wind_Speed_500mb
55 61 62 64 65 66 59 56 52 44 40 43 41 31 30 38 48 52 51 48 52 50 44 44 44 40 40 41 37 37 33 32 34 34 30 29 36 42 38 38 37 37 35
40 48 56 63 67 66 63 59 50 48 49 45 45 42 40 43 45 54 55 53 51 57 52 47 48 46 43 39 37 41 41 42 41 40 38 35 34 39 44 45 44 42 42
39 45 52 58 65 67 67 66 68 63 58 57 60 59 50 51 49 48 52 58 57 56 51 53 48 44 44 43 41 38 37 35 39 42 39 36 36 38 44 48 49 50 49
35 42 41 48 58 63 64 66 67 65 67 73 70 71 70 68 60 56 52 53 52 55 54 53 54 49 48 46 46 42 37 35 36 40 41 42 41 40 44 51 55 56 55
45 40 51 46 49 69 67 67 63 56 51 51 59 71 75 71 70 64 56 55 54 51 49 49 52 53 47 47 50 47 45 45 45 46 49 51 51 49 47 46 52 57 58
36 51 53 65 58 53 63 74 80 69 44 63 81 63 69 77 74 69 63 60 53 54 52 46 45 47 51 51 51 50 50 50 53 55 58 60 59 56 53 48 50 57 65
37 40 45 49 49 53 61 56 72 64 70 88 85 77 71 64 71 75 69 66 61 60 57 52 52 52 52 53 54 54 54 54 56 59 65 67 66 61 56 58 52 51 60
8 11 15 20 31 44 56 60 62 73 70 61 90 83 68 60 58 72 73 71 67 66 60 51 51 53 56 58 59 60 60 60 59 56 62 70 72 70 65 61 51 48 58
16 25 22 14 16 26 32 41 55 66 75 91 101 103 72 71 63 61 68 71 70 63 56 50 52 60 66 57 58 51 57 65 60 55 50 51 65 77 77 62 65 57 65
33 31 25 25 27 31 36 38 52 41 33 24 17 33 48 55 70 61 67 74 66 63 54 53 48 54 58 67 70 70 57 51 50 48 45 47 58 69 81 95 64 64 66
41 39 30 22 30 32 35 35 40 37 51 36 38 44 55 64 77 78 75 77 63 72 55 51 43 45 49 59 63 74 81 68 55 46 42 36 59 67 71 81 78 70 74
41 44 41 37 38 36 33 34 36 45 65 77 79 79 70 63 67 66 68 63 58 55 54 45 41 43 48 59 55 46 51 46 52 55 48 51 56 63 57 55 59 65 69
45 53 56 49 38 33 40 34 39 40 48 54 58 54 52 40 36 42 48 45 46 50 41 29 25 24 30 41 49 51 48 52 53 55 53 59 63 66 68 66 74 78 81
55 54 57 62 62 48 39 41 43 48 45 42 44 50 46 41 42 35 39 46 46 43 36 31 30 29 27 30 33 41 42 47 47 51 53 56 61 59 68 74 77 74 79
54 51 50 54 59 61 58 46 41 39 51 52 47 39 46 52 48 42 41 47 51 48 41 40 40 36 35 37 35 34 41 46 42 47 49 53 54 57 58 56 60 67 78
49 49 48 48 46 51 58 60 56 54 49 49 56 66 61 55 46 49 49 52 57 57 58 58 54 48 49 44 39 35 33 40 42 45 50 55 52 57 59 56 63 73 75
45 57 62 51 47 44 46 48 52 47 44 47 51 56 62 80 71 60 60 63 59 60 60 63 59 54 51 45 41 39 39 37 38 40 50 55 52 49 49 56 59 67 70
47 52 55 47 46 46 44 44 43 47 37 29 30 37 57 58 70 61 45 48 49 44 58 54 52 43 40 42 42 42 42 44 42 44 46 47 53 57 54 57 59 56 56
46 42 43 43 43 41 41 38 30 35 40 31 30 38 38 49 44 33 38 40 41 55 76 64 49 50 51 50 42 43 44 44 41 40 46 49 52 59 58 63 63 60 59
41 41 42 45 43 42 39 39 37 33 35 33 39 32 32 36 35 16 12 11 17 46 51 42 41 40 36 37 41 44 43 44 44 45 44 46 50 52 57 56 56 69 69
44 47 44 44 41 35 32 33 37 38 28 25 26 37 24 32 46 55 39 36 28 42 28 33 27 28 30 31 35 39 43 45 48 50 46 51 52 58 59 55 60 64 62
43 48 50 47 45 32 29 26 31 34 21 20 24 20 37 32 27 19 32 30 33 26 22 22 17 23 30 34 38 42 48 48 47 51 51 53 57 58 59 62 63 68 68
49 45 50 51 48 29 21 20 25 24 24 23 19 11 32 41 30 24 21 24 26 23 22 25 28 30 35 36 41 49 53 54 52 53 55 56 57 61 62 65 60 67 70
59 52 49 54 56 46 29 23 25 26 25 21 16 10 10 15 19 16 16 20 24 28 34 38 41 42 42 44 50 48 46 48 51 54 54 54 49 49 57 63 61 58 66
52 57 58 60 56 53 54 47 44 37 32 28 28 29 27 27 28 30 30 33 37 41 43 44 44 43 45 48 52 57 51 46 48 52 54 56 56 53 60 57 60 57 60
48 52 50 52 55 58 61 60 59 55 56 53 38 31 31 31 35 45 39 37 37 39 40 42 43 41 40 41 40 42 44 45 47 50 49 47 51 55 58 61 59 59 57
Wind_Direction_500mb
253 252 255 254 251 251 255 253 250 248 249 253 263 266 251 245 241 238 234 227 229 229 231 231 234 239 241 243 243 246 249 249 255 267 278 273 260 252 247 243 239 240 245
258 260 263 261 254 255 256 256 250 248 245 247 255 256 257 253 251 248 243 236 232 229 229 233 238 241 239 238 247 245 247 250 255 263 274 273 264 254 250 250 245 247 246
261 264 259 255 254 255 260 263 264 262 258 254 254 257 256 252 251 252 245 240 238 240 242 239 240 242 244 241 244 248 249 252 253 261 270 272 271 256 250 249 245 241 242
260 251 254 258 255 258 264 265 266 269 276 275 267 264 263 259 254 249 241 242 242 243 248 249 245 245 247 240 242 249 252 253 258 264 266 268 269 263 253 251 248 246 241
255 256 255 255 263 252 254 261 257 255 260 272 277 276 268 261 255 252 249 242 241 243 245 245 240 239 240 240 244 245 250 254 257 263 266 265 262 260 257 258 256 252 247
271 264 260 264 267 263 260 257 252 248 266 288 289 269 271 266 255 246 244 241 238 241 242 241 237 235 234 238 245 248 249 253 259 262 265 264 264 263 263 261 258 252 242
263 267 267 267 259 264 257 257 262 266 265 283 271 269 255 252 258 245 242 237 234 234 234 235 238 238 238 239 240 242 246 250 255 263 267 268 272 266 262 258 253 252 252
334 332 316 309 290 273 262 266 267 257 265 263 251 243 241 241 247 247 244 241 236 235 235 237 245 251 252 250 249 249 250 252 252 258 270 278 276 275 270 265 270 266 255
343 342 332 333 305 278 268 275 267 258 264 256 262 256 241 255 253 248 248 245 241 238 236 237 245 259 261 252 249 254 261 254 251 251 258 269 277 274 271 264 254 247 249
328 331 307 308 296 290 285 271 274 266 230 203 224 201 213 252 241 244 256 247 241 241 241 247 256 259 250 249 253 262 253 244 259 259 258 266 286 273 272 271 249 251 252
330 333 329 303 288 291 284 276 257 250 209 210 231 221 228 241 242 256 252 248 251 239 244 251 252 259 261 261 262 267 248 256 264 257 260 266 268 254 252 251 240 251 244
314 320 322 318 303 284 285 284 283 262 245 251 261 264 259 250 248 247 243 237 248 236 241 251 255 258 258 260 256 271 258 266 269 256 253 254 254 249 249 250 246 250 242
301 301 308 311 314 297 277 285 284 281 274 273 272 264 256 246 233 220 224 224 231 238 240 242 248 254 251 256 259 264 265 263 271 274 274 269 259 259 248 254 248 251 249
306 302 295 295 296 293 287 283 279 274 275 279 281 269 259 252 244 233 230 232 235 223 218 229 242 254 262 269 280 290 284 277 270 270 270 269 270 265 263 254 252 249 243
312 312 305 293 289 291 289 284 280 273 265 266 267 264 258 251 246 252 256 239 227 227 230 234 243 252 265 268 273 285 279 279 270 267 267 263 259 257 254 254 250 242 235
322 323 317 310 301 292 293 291 287 282 278 272 268 260 256 248 248 249 247 242 235 230 233 237 242 246 253 258 266 277 271 269 263 262 252 258 254 250 250 252 248 237 237
328 331 330 319 303 305 302 302 295 287 292 284 281 280 270 262 256 246 242 237 230 226 224 229 234 237 243 249 254 264 269 277 271 258 257 259 251 249 250 246 240 237 235
316 326 334 339 336 325 315 306 294 286 291 290 283 280 274 263 252 239 232 215 225 223 231 227 231 234 237 243 246 253 259 269 274 259 250 251 257 257 248 247 237 238 246
319 324 328 332 341 345 342 332 305 287 268 272 271 262 245 241 215 208 225 209 223 238 248 238 230 235 235 238 242 244 250 260 265 258 251 252 249 259 255 258 249 246 248
345 339 326 318 326 332 335 342 340 313 285 273 255 254 253 228 191 180 227 253 212 237 245 239 228 232 238 241 242 243 245 254 261 267 260 260 251 251 258 254 257 251 251
352 352 348 345 327 318 320 329 340 332 303 279 259 243 231 268 230 215 223 244 237 243 258 256 234 230 239 247 242 241 252 261 263 266 269 264 263 263 259 260 257 258 257
8 4 358 353 343 320 307 322 336 350 360 333 323 295 248 236 229 202 202 219 236 237 249 269 270 257 257 255 253 254 255 259 264 261 265 273 265 259 259 254 254 258 255
13 11 13 10 357 349 321 332 338 340 348 348 330 299 233 253 243 229 231 236 248 269 281 287 282 278 270 264 263 264 266 267 270 269 269 267 267 255 253 258 259 255 253
26 28 22 24 25 28 18 353 336 333 329 327 328 314 294 278 275 277 275 278 287 288 284 285 284 277 273 267 259 259 263 262 263 268 263 263 264 251 249 251 256 258 255
24 27 31 32 34 33 32 29 26 9 347 321 304 298 294 282 273 274 279 287 289 288 287 288 287 282 275 268 265 258 256 257 260 259 256 259 259 257 256 252 259 258 251
27 28 29 31 32 34 34 35 34 32 33 29 13 357 340 316 294 273 279 293 295 296 302 299 293 289 284 277 271 262 256 254 254 247 253 262 255 251 254 254 253 256 249
Wind_Speed_850mb
55 61 62 64 65 66 59 56 52 44 40 43 41 31 30 38 48 52 51 48 52 50 44 44 44 40 40 41 37 37 33 32 34 34 30 29 36 42 38 38 37 37 35
40 48 56 63 67 66 63 59 50 48 49 45 45 42 40 43 45 54 55 53 51 57 52 47 48 46 43 39 37 41 41 42 41 40 38 35 34 39 44 45 44 42 42
39 45 52 58 65 67 67 66 68 63 58 57 60 59 50 51 49 48 52 58 57 56 51 53 48 44 44 43 41 38 37 35 39 42 39 36 36 38 44 48 49 50 49
35 42 41 48 58 63 64 66 67 65 67 73 70 71 70 68 60 56 52 53 52 55 54 53 54 49 48 46 46 42 37 35 36 40 41 42 41 40 44 51 55 56 55
45 40 51 46 49 69 67 67 63 56 51 51 59 71 75 71 70 64 56 55 54 51 49 49 52 53 47 47 50 47 45 45 45 46 49 51 51 49 47 46 52 57 58
36 51 53 65 58 53 63 74 80 69 44 63 81 63 69 77 74 69 63 60 53 54 52 46 45 47 51 51 51 50 50 50 53 55 58 60 59 56 53 48 50 57 65
37 40 45 49 49 53 61 56 72 64 70 88 85 77 71 64 71 75 69 66 61 60 57 52 52 52 52 53 54 54 54 54 56 59 65 67 66 61 56 58 52 51 60
8 11 15 20 31 44 56 60 62 73 70 61 90 83 68 60 58 72 73 71 67 66 60 51 51 53 56 58 59 60 60 60 59 56 62 70 72 70 65 61 51 48 58
16 25 22 14 16 26 32 41 55 66 75 91 101 103 72 71 63 61 68 71 70 63 56 50 52 60 66 57 58 51 57 65 60 55 50 51 65 77 77 62 65 57 65
33 31 25 25 27 31 36 38 52 41 33 24 17 33 48 55 70 61 67 74 66 63 54 53 48 54 58 67 70 70 57 51 50 48 45 47 58 69 81 95 64 64 66
41 39 30 22 30 32 35 35 40 37 51 36 38 44 55 64 77 78 75 77 63 72 55 51 43 45 49 59 63 74 81 68 55 46 42 36 59 67 71 81 78 70 74
41 44 41 37 38 36 33 34 36 45 65 77 79 79 70 63 67 66 68 63 58 55 54 45 41 43 48 59 55 46 51 46 52 55 48 51 56 63 57 55 59 65 69
45 53 56 49 38 33 40 34 39 40 48 54 58 54 52 40 36 42 48 45 46 50 41 29 25 24 30 41 49 51 48 52 53 55 53 59 63 66 68 66 74 78 81
55 54 57 62 62 48 39 41 43 48 45 42 44 50 46 41 42 35 39 46 46 43 36 31 30 29 27 30 33 41 42 47 47 51 53 56 61 59 68 74 77 74 79
54 51 50 54 59 61 58 46 41 39 51 52 47 39 46 52 48 42 41 47 51 48 41 40 40 36 35 37 35 34 41 46 42 47 49 53 54 57 58 56 60 67 78
49 49 48 48 46 51 58 60 56 54 49 49 56 66 61 55 46 49 49 52 57 57 58 58 54 48 49 44 39 35 33 40 42 45 50 55 52 57 59 56 63 73 75
45 57 62 51 47 44 46 48 52 47 44 47 51 56 62 80 71 60 60 63 59 60 60 63 59 54 51 45 41 39 39 37 38 40 50 55 52 49 49 56 59 67 70
47 52 55 47 46 46 44 44 43 47 37 29 30 37 57 58 70 61 45 48 49 44 58 54 52 43 40 42 42 42 42 44 42 44 46 47 53 57 54 57 59 56 56
46 42 43 43 43 41 41 38 30 35 40 31 30 38 38 49 44 33 38 40 41 55 76 64 49 50 51 50 42 43 44 44 41 40 46 49 52 59 58 63 63 60 59
41 41 42 45 43 42 39 39 37 33 35 33 39 32 32 36 35 16 12 11 17 46 51 42 41 40 36 37 41 44 43 44 44 45 44 46 50 52 57 56 56 69 69
44 47 44 44 41 35 32 33 37 38 28 25 26 37 24 32 46 55 39 36 28 42 28 33 27 28 30 31 35 39 43 45 48 50 46 51 52 58 59 55 60 64 62
43 48 50 47 45 32 29 26 31 34 21 20 24 20 37 32 27 19 32 30 33 26 22 22 17 23 30 34 38 42 48 48 47 51 51 53 57 58 59 62 63 68 68
49 45 50 51 48 29 21 20 25 24 24 23 19 11 32 41 30 24 21 24 26 23 22 25 28 30 35 36 41 49 53 54 52 53 55 56 57 61 62 65 60 67 70
59 52 49 54 56 46 29 23 25 26 25 21 16 10 10 15 19 16 16 20 24 28 34 38 41 42 42 44 50 48 46 48 51 54 54 54 49 49 57 63 61 58 66
52 57 58 60 56 53 54 47 44 37 32 28 28 29 27 27 28 30 30 33 37 41 43 44 44 43 45 48 52 57 51 46 48 52 54 56 56 53 60 57 60 57 60
48 52 50 52 55 58 61 60 59 55 56 53 38 31 31 31 35 45 39 37 37 39 40 42 43 41 40 41 40 42 44 45 47 50 49 47 51 55 58 61 59 59 57
Wind_Direction_850mb
253 252 255 254 251 251 255 253 250 248 249 253 263 266 251 245 241 238 234 227 229 229 231 231 234 239 241 243 243 246 249 249 255 267 278 273 260 252 247 243 239 240 245
258 260 263 261 254 255 256 256 250 248 245 247 255 256 257 253 251 248 243 236 232 229 229 233 238 241 239 238 247 245 247 250 255 263 274 273 264 254 250 250 245 247 246
261 264 259 255 254 255 260 263 264 262 258 254 254 257 256 252 251 252 245 240 238 240 242 239 240 242 244 241 244 248 249 252 253 261 270 272 271 256 250 249 245 241 242
260 251 254 258 255 258 264 265 266 269 276 275 267 264 263 259 254 249 241 242 242 243 248 249 245 245 247 240 242 249 252 253 258 264 266 268 269 263 253 251 248 246 241
255 256 255 255 263 252 254 261 257 255 260 272 277 276 268 261 255 252 249 242 241 243 245 245 240 239 240 240 244 245 250 254 257 263 266 265 262 260 257 258 256 252 247
271 264 260 264 267 263 260 257 252 248 266 288 289 269 271 266 255 246 244 241 238 241 242 241 237 235 234 238 245 248 249 253 259 262 265 264 264 263 263 261 258 252 242
263 267 267 267 259 264 257 257 262 266 265 283 271 269 255 252 258 245 242 237 234 234 234 235 238 238 238 239 240 242 246 250 255 263 267 268 272 266 262 258 253 252 252
334 332 316 309 290 273 262 266 267 257 265 263 251 243 241 241 247 247 244 241 236 235 235 237 245 251 252 250 249 249 250 252 252 258 270 278 276 275 270 265 270 266 255
343 342 332 333 305 278 268 275 267 258 264 256 262 256 241 255 253 248 248 245 241 238 236 237 245 259 261 252 249 254 261 254 251 251 258 269 277 274 271 264 254 247 249
328 331 307 308 296 290 285 271 274 266 230 203 224 201 213 252 241 244 256 247 241 241 241 247 256 259 250 249 253 262 253 244 259 259 258 266 286 273 272 271 249 251 252
330 333 329 303 288 291 284 276 257 250 209 210 231 221 228 241 242 256 252 248 251 239 244 251 252 259 261 261 262 267 248 256 264 257 260 266 268 254 252 251 240 251 244
314 320 322 318 303 284 285 284 283 262 245 251 261 264 259 250 248 247 243 237 248 236 241 251 255 258 258 260 256 271 258 266 269 256 253 254 254 249 249 250 246 250 242
301 301 308 311 314 297 277 285 284 281 274 273 272 264 256 246 233 220 224 224 231 238 240 242 248 254 251 256 259 264 265 263 271 274 274 269 259 259 248 254 248 251 249
306 302 295 295 296 293 287 283 279 274 275 279 281 269 259 252 244 233 230 232 235 223 218 229 242 254 262 269 280 290 284 277 270 270 270 269 270 265 263 254 252 249 243
312 312 305 293 289 291 289 284 280 273 265 266 267 264 258 251 246 252 256 239 227 227 230 234 243 252 265 268 273 285 279 279 270 267 267 263 259 257 254 254 250 242 235
322 323 317 310 301 292 293 291 287 282 278 272 268 260 256 248 248 249 247 242 235 230 233 237 242 246 253 258 266 277 271 269 263 262 252 258 254 250 250 252 248 237 237
328 331 330 319 303 305 302 302 295 287 292 284 281 280 270 262 256 246 242 237 230 226 224 229 234 237 243 249 254 264 269 277 271 258 257 259 251 249 250 246 240 237 235
316 326 334 339 336 325 315 306 294 286 291 290 283 280 274 263 252 239 232 215 225 223 231 227 231 234 237 243 246 253 259 269 274 259 250 251 257 257 248 247 237 238 246
319 324 328 332 341 345 342 332 305 287 268 272 271 262 245 241 215 208 225 209 223 238 248 238 230 235 235 238 242 244 250 260 265 258 251 252 249 259 255 258 249 246 248
345 339 326 318 326 332 335 342 340 313 285 273 255 254 253 228 191 180 227 253 212 237 245 239 228 232 238 241 242 243 245 254 261 267 260 260 251 251 258 254 257 251 251
352 352 348 345 327 318 320 329 340 332 303 279 259 243 231 268 230 215 223 244 237 243 258 256 234 230 239 247 242 241 252 261 263 266 269 264 263 263 259 260 257 258 257
8 4 358 353 343 320 307 322 336 350 360 333 323 295 248 236 229 202 202 219 236 237 249 269 270 257 257 255 253 254 255 259 264 261 265 273 265 259 259 254 254 258 255
13 11 13 10 357 349 321 332 338 340 348 348 330 299 233 253 243 229 231 236 248 269 281 287 282 278 270 264 263 264 266 267 270 269 269 267 267 255 253 258 259 255 253
26 28 22 24 25 28 18 353 336 333 329 327 328 314 294 278 275 277 275 278 287 288 284 285 284 277 273 267 259 259 263 262 263 268 263 263 264 251 249 251 256 258 255
24 27 31 32 34 33 32 29 26 9 347 321 304 298 294 282 273 274 279 287 289 288 287 288 287 282 275 268 265 258 256 257 260 259 256 259 259 257 256 252 259 258 251
27 28 29 31 32 34 34 35 34 32 33 29 13 357 340 316 294 273 279 293 295 296 302 299 293 289 284 277 271 262 256 254 254 247 253 262 255 251 254 254 253 256 249